Location: *
(1.1500°N, 76.6167°W)
Time: 13:06:12
(UTC+00:00)

Daily predictions for brighter satellites

Satellite Brightness Start Highest point End
(mag) Time Altitude Azimuth Time Altitude Azimuth Time Altitude Azimuth
Centaur AC-146 3.7 22:18:22 10° NW 22:22:07 57° NNE 22:45:39 10° ESE
Cosmos 841 Rocket 4.1 23:09:35 10° SSE 23:14:19 36° ESE 23:19:04 10° NE
USA 234 4.3 23:09:37 10° ENE 23:14:50 26° SE 23:20:02 10° S
AQUARIUS 4.5 23:10:24 10° S 23:14:53 74° WSW 23:19:22 10° NNW
Cosmos 1727 Rocket 4.2 23:10:05 10° S 23:16:18 80° W 23:22:27 10° N
COSMOS 2406 3.5 23:11:30 10° N 23:16:57 47° ENE 23:22:22 10° SSE
Cosmos-2242 3.7 23:14:12 10° SSE 23:18:10 33° E 23:22:05 10° NNE
ARIANE 5 R/B 2.7 23:15:58 10° WSW 23:18:14 54° S 23:25:32 10° E
Cosmos 1570 Rocket 4.0 23:16:16 10° S 23:21:34 84° ESE 23:26:53 10° NNE
Cosmos 192 4.3 23:19:01 10° S 23:23:53 72° ESE 23:28:44 10° NNE
Cosmos 540 Rocket 4.0 23:21:29 10° S 23:26:13 37° ESE 23:30:57 10° NE
Cosmos 1934 Rocket 4.4 23:19:58 10° N 23:26:18 73° W 23:32:36 10° S
Cosmos 1605 Rocket 3.9 23:21:39 10° N 23:27:39 67° E 23:33:42 10° SSE
Cosmos 1300 3.9 23:25:50 10° SSW 23:29:31 46° W 23:33:10 10° NNW
deb Ariane 3.8 23:27:06 10° WNW 23:29:39 35° NNE 23:34:45 13° ENE
Cosmos 1763 Rocket 4.1 23:27:04 10° SSW 23:32:19 63° WNW 23:37:33 10° N
ASTRO E2 4.1 23:29:51 10° WNW 23:33:34 37° SSW 23:37:17 10° SE
Cosmos 1340 Rocket 4.4 23:35:18 10° SE 23:37:18 15° E 23:37:18 15° E
Cosmos 1000 Rocket 4.4 23:31:50 10° S 23:37:58 75° E 23:44:08 10° N
Cosmos 2208 Rocket 4.2 23:34:05 10° SSW 23:39:21 75° WNW 23:44:33 10° N
Cosmos 1777 Rocket 3.9 23:38:52 10° N 23:44:01 72° ENE 23:49:12 10° SSE
ADEOS Rocket 3.9 23:41:51 10° NE 23:47:30 30° E 23:52:41 10° SSE
CZ-4 R/B 4.3 23:44:02 10° SSE 23:48:09 74° ENE 23:52:14 10° N
Envisat 3.3 23:48:05 10° S 23:53:08 68° WSW 23:58:09 10° NNW
